<?xml version="1.0"?>
<gpx xmlns="http://www.topografix.com/GPX/1/1" xmlns:xsi="http://www.w3.org/2001/XMLSchema-instance" version="1.1" creator="GPX RubyGem 1.0.0 -- http://dougfales.github.io/gpx/" xsi:schemaLocation="http://www.topografix.com/GPX/1/1 http://www.topografix.com/GPX/1/1/gpx.xsd">
  <metadata>
    <name/>
    <time>2026-05-08T09:16:58+00:00</time>
    <bound minlat="90.0" minlon="180.0" maxlat="-90.0" maxlon="-180.0"/>
  </metadata>
  <trk>
    <name/>
    <trkseg>
      <trkpt lat="44.272408" lon="7.671905">
        <time>1970-01-01T00:00:00+00:00</time>
        <ele>832.0</ele>
      </trkpt>
      <trkpt lat="44.27228" lon="7.672104">
        <time>1970-01-01T00:00:00+00:00</time>
        <ele>830.0</ele>
      </trkpt>
      <trkpt lat="44.272192" lon="7.672365">
        <time>1970-01-01T00:00:00+00:00</time>
        <ele>830.0</ele>
      </trkpt>
      <trkpt lat="44.271969" lon="7.672841">
        <time>1970-01-01T00:00:00+00:00</time>
        <ele>840.0</ele>
      </trkpt>
      <trkpt lat="44.271732" lon="7.672824">
        <time>1970-01-01T00:00:00+00:00</time>
        <ele>847.0</ele>
      </trkpt>
      <trkpt lat="44.271324" lon="7.673152">
        <time>1970-01-01T00:00:00+00:00</time>
        <ele>856.0</ele>
      </trkpt>
      <trkpt lat="44.270831" lon="7.673279">
        <time>1970-01-01T00:00:00+00:00</time>
        <ele>864.0</ele>
      </trkpt>
      <trkpt lat="44.270447" lon="7.673566">
        <time>1970-01-01T00:00:00+00:00</time>
        <ele>866.0</ele>
      </trkpt>
      <trkpt lat="44.27042" lon="7.67358">
        <time>1970-01-01T00:00:00+00:00</time>
        <ele>867.0</ele>
      </trkpt>
      <trkpt lat="44.27042" lon="7.67349">
        <time>1970-01-01T00:00:00+00:00</time>
        <ele>868.0</ele>
      </trkpt>
      <trkpt lat="44.270449" lon="7.673383">
        <time>1970-01-01T00:00:00+00:00</time>
        <ele>869.0</ele>
      </trkpt>
      <trkpt lat="44.270649" lon="7.673061">
        <time>1970-01-01T00:00:00+00:00</time>
        <ele>871.0</ele>
      </trkpt>
      <trkpt lat="44.270864" lon="7.672879">
        <time>1970-01-01T00:00:00+00:00</time>
        <ele>873.0</ele>
      </trkpt>
      <trkpt lat="44.270941" lon="7.672793">
        <time>1970-01-01T00:00:00+00:00</time>
        <ele>874.0</ele>
      </trkpt>
      <trkpt lat="44.271156" lon="7.672675">
        <time>1970-01-01T00:00:00+00:00</time>
        <ele>872.0</ele>
      </trkpt>
      <trkpt lat="44.271294" lon="7.672546">
        <time>1970-01-01T00:00:00+00:00</time>
        <ele>872.0</ele>
      </trkpt>
      <trkpt lat="44.271335" lon="7.672372">
        <time>1970-01-01T00:00:00+00:00</time>
        <ele>874.0</ele>
      </trkpt>
      <trkpt lat="44.271328" lon="7.67222">
        <time>1970-01-01T00:00:00+00:00</time>
        <ele>877.0</ele>
      </trkpt>
      <trkpt lat="44.271233" lon="7.671988">
        <time>1970-01-01T00:00:00+00:00</time>
        <ele>887.0</ele>
      </trkpt>
      <trkpt lat="44.271202" lon="7.671698">
        <time>1970-01-01T00:00:00+00:00</time>
        <ele>897.0</ele>
      </trkpt>
      <trkpt lat="44.271018" lon="7.671924">
        <time>1970-01-01T00:00:00+00:00</time>
        <ele>897.0</ele>
      </trkpt>
      <trkpt lat="44.270611" lon="7.672095">
        <time>1970-01-01T00:00:00+00:00</time>
        <ele>904.0</ele>
      </trkpt>
      <trkpt lat="44.270457" lon="7.672246">
        <time>1970-01-01T00:00:00+00:00</time>
        <ele>902.0</ele>
      </trkpt>
      <trkpt lat="44.270257" lon="7.672299">
        <time>1970-01-01T00:00:00+00:00</time>
        <ele>905.0</ele>
      </trkpt>
      <trkpt lat="44.269927" lon="7.672256">
        <time>1970-01-01T00:00:00+00:00</time>
        <ele>912.0</ele>
      </trkpt>
      <trkpt lat="44.269497" lon="7.672278">
        <time>1970-01-01T00:00:00+00:00</time>
        <ele>914.0</ele>
      </trkpt>
      <trkpt lat="44.269259" lon="7.67216">
        <time>1970-01-01T00:00:00+00:00</time>
        <ele>912.0</ele>
      </trkpt>
      <trkpt lat="44.26905" lon="7.671981">
        <time>1970-01-01T00:00:00+00:00</time>
        <ele>912.0</ele>
      </trkpt>
      <trkpt lat="44.268936" lon="7.671795">
        <time>1970-01-01T00:00:00+00:00</time>
        <ele>915.0</ele>
      </trkpt>
      <trkpt lat="44.268867" lon="7.671602">
        <time>1970-01-01T00:00:00+00:00</time>
        <ele>920.0</ele>
      </trkpt>
      <trkpt lat="44.268736" lon="7.671516">
        <time>1970-01-01T00:00:00+00:00</time>
        <ele>923.0</ele>
      </trkpt>
      <trkpt lat="44.268629" lon="7.671398">
        <time>1970-01-01T00:00:00+00:00</time>
        <ele>929.0</ele>
      </trkpt>
      <trkpt lat="44.268505" lon="7.67115">
        <time>1970-01-01T00:00:00+00:00</time>
        <ele>942.0</ele>
      </trkpt>
      <trkpt lat="44.268337" lon="7.670947">
        <time>1970-01-01T00:00:00+00:00</time>
        <ele>952.0</ele>
      </trkpt>
      <trkpt lat="44.268851" lon="7.670958">
        <time>1970-01-01T00:00:00+00:00</time>
        <ele>956.0</ele>
      </trkpt>
      <trkpt lat="44.268874" lon="7.67084">
        <time>1970-01-01T00:00:00+00:00</time>
        <ele>961.0</ele>
      </trkpt>
      <trkpt lat="44.268613" lon="7.670636">
        <time>1970-01-01T00:00:00+00:00</time>
        <ele>964.0</ele>
      </trkpt>
      <trkpt lat="44.268398" lon="7.670347">
        <time>1970-01-01T00:00:00+00:00</time>
        <ele>972.0</ele>
      </trkpt>
      <trkpt lat="44.268306" lon="7.670282">
        <time>1970-01-01T00:00:00+00:00</time>
        <ele>974.0</ele>
      </trkpt>
      <trkpt lat="44.26826" lon="7.670175">
        <time>1970-01-01T00:00:00+00:00</time>
        <ele>978.0</ele>
      </trkpt>
      <trkpt lat="44.268168" lon="7.670089">
        <time>1970-01-01T00:00:00+00:00</time>
        <ele>980.0</ele>
      </trkpt>
      <trkpt lat="44.26806" lon="7.670025">
        <time>1970-01-01T00:00:00+00:00</time>
        <ele>981.0</ele>
      </trkpt>
      <trkpt lat="44.267929" lon="7.669982">
        <time>1970-01-01T00:00:00+00:00</time>
        <ele>983.0</ele>
      </trkpt>
      <trkpt lat="44.267791" lon="7.669896">
        <time>1970-01-01T00:00:00+00:00</time>
        <ele>986.0</ele>
      </trkpt>
      <trkpt lat="44.267576" lon="7.669842">
        <time>1970-01-01T00:00:00+00:00</time>
        <ele>989.0</ele>
      </trkpt>
      <trkpt lat="44.267369" lon="7.669821">
        <time>1970-01-01T00:00:00+00:00</time>
        <ele>993.0</ele>
      </trkpt>
      <trkpt lat="44.267169" lon="7.669853">
        <time>1970-01-01T00:00:00+00:00</time>
        <ele>994.0</ele>
      </trkpt>
      <trkpt lat="44.267008" lon="7.669853">
        <time>1970-01-01T00:00:00+00:00</time>
        <ele>994.0</ele>
      </trkpt>
      <trkpt lat="44.2666" lon="7.669971">
        <time>1970-01-01T00:00:00+00:00</time>
        <ele>987.0</ele>
      </trkpt>
      <trkpt lat="44.266439" lon="7.670089">
        <time>1970-01-01T00:00:00+00:00</time>
        <ele>980.0</ele>
      </trkpt>
      <trkpt lat="44.266366" lon="7.670286">
        <time>1970-01-01T00:00:00+00:00</time>
        <ele>975.0</ele>
      </trkpt>
      <trkpt lat="44.266417" lon="7.670523">
        <time>1970-01-01T00:00:00+00:00</time>
        <ele>974.0</ele>
      </trkpt>
      <trkpt lat="44.266384" lon="7.670685">
        <time>1970-01-01T00:00:00+00:00</time>
        <ele>973.0</ele>
      </trkpt>
      <trkpt lat="44.266391" lon="7.670893">
        <time>1970-01-01T00:00:00+00:00</time>
        <ele>973.0</ele>
      </trkpt>
      <trkpt lat="44.26651" lon="7.671212">
        <time>1970-01-01T00:00:00+00:00</time>
        <ele>983.0</ele>
      </trkpt>
      <trkpt lat="44.266808" lon="7.671527">
        <time>1970-01-01T00:00:00+00:00</time>
        <ele>984.0</ele>
      </trkpt>
      <trkpt lat="44.266833" lon="7.671691">
        <time>1970-01-01T00:00:00+00:00</time>
        <ele>986.0</ele>
      </trkpt>
      <trkpt lat="44.26678" lon="7.671944">
        <time>1970-01-01T00:00:00+00:00</time>
        <ele>991.0</ele>
      </trkpt>
      <trkpt lat="44.266381" lon="7.672697">
        <time>1970-01-01T00:00:00+00:00</time>
        <ele>1007.0</ele>
      </trkpt>
      <trkpt lat="44.266148" lon="7.673294">
        <time>1970-01-01T00:00:00+00:00</time>
        <ele>1013.0</ele>
      </trkpt>
      <trkpt lat="44.266021" lon="7.673789">
        <time>1970-01-01T00:00:00+00:00</time>
        <ele>1017.0</ele>
      </trkpt>
      <trkpt lat="44.265999" lon="7.674267">
        <time>1970-01-01T00:00:00+00:00</time>
        <ele>1015.0</ele>
      </trkpt>
      <trkpt lat="44.266049" lon="7.674786">
        <time>1970-01-01T00:00:00+00:00</time>
        <ele>1007.0</ele>
      </trkpt>
      <trkpt lat="44.266008" lon="7.675039">
        <time>1970-01-01T00:00:00+00:00</time>
        <ele>1007.0</ele>
      </trkpt>
      <trkpt lat="44.265689" lon="7.675349">
        <time>1970-01-01T00:00:00+00:00</time>
        <ele>1012.0</ele>
      </trkpt>
      <trkpt lat="44.265324" lon="7.67539">
        <time>1970-01-01T00:00:00+00:00</time>
        <ele>1028.0</ele>
      </trkpt>
      <trkpt lat="44.264845" lon="7.67558">
        <time>1970-01-01T00:00:00+00:00</time>
        <ele>1041.0</ele>
      </trkpt>
      <trkpt lat="44.264663" lon="7.675917">
        <time>1970-01-01T00:00:00+00:00</time>
        <ele>1040.0</ele>
      </trkpt>
      <trkpt lat="44.264634" lon="7.676179">
        <time>1970-01-01T00:00:00+00:00</time>
        <ele>1034.0</ele>
      </trkpt>
      <trkpt lat="44.26483" lon="7.676401">
        <time>1970-01-01T00:00:00+00:00</time>
        <ele>1022.0</ele>
      </trkpt>
      <trkpt lat="44.264815" lon="7.676679">
        <time>1970-01-01T00:00:00+00:00</time>
        <ele>1025.0</ele>
      </trkpt>
      <trkpt lat="44.264761" lon="7.676867">
        <time>1970-01-01T00:00:00+00:00</time>
        <ele>1029.0</ele>
      </trkpt>
      <trkpt lat="44.264653" lon="7.676953">
        <time>1970-01-01T00:00:00+00:00</time>
        <ele>1034.0</ele>
      </trkpt>
      <trkpt lat="44.264469" lon="7.677018">
        <time>1970-01-01T00:00:00+00:00</time>
        <ele>1043.0</ele>
      </trkpt>
      <trkpt lat="44.26433" lon="7.677018">
        <time>1970-01-01T00:00:00+00:00</time>
        <ele>1052.0</ele>
      </trkpt>
      <trkpt lat="44.264177" lon="7.677168">
        <time>1970-01-01T00:00:00+00:00</time>
        <ele>1063.0</ele>
      </trkpt>
      <trkpt lat="44.263961" lon="7.677339">
        <time>1970-01-01T00:00:00+00:00</time>
        <ele>1073.0</ele>
      </trkpt>
      <trkpt lat="44.2639" lon="7.677575">
        <time>1970-01-01T00:00:00+00:00</time>
        <ele>1078.0</ele>
      </trkpt>
      <trkpt lat="44.263654" lon="7.677425">
        <time>1970-01-01T00:00:00+00:00</time>
        <ele>1087.0</ele>
      </trkpt>
      <trkpt lat="44.263608" lon="7.677683">
        <time>1970-01-01T00:00:00+00:00</time>
        <ele>1090.0</ele>
      </trkpt>
      <trkpt lat="44.263424" lon="7.677618">
        <time>1970-01-01T00:00:00+00:00</time>
        <ele>1095.0</ele>
      </trkpt>
      <trkpt lat="44.263285" lon="7.677382">
        <time>1970-01-01T00:00:00+00:00</time>
        <ele>1097.0</ele>
      </trkpt>
      <trkpt lat="44.263162" lon="7.677211">
        <time>1970-01-01T00:00:00+00:00</time>
        <ele>1097.0</ele>
      </trkpt>
      <trkpt lat="44.263101" lon="7.677447">
        <time>1970-01-01T00:00:00+00:00</time>
        <ele>1098.0</ele>
      </trkpt>
      <trkpt lat="44.263039" lon="7.677769">
        <time>1970-01-01T00:00:00+00:00</time>
        <ele>1101.0</ele>
      </trkpt>
      <trkpt lat="44.26287" lon="7.678005">
        <time>1970-01-01T00:00:00+00:00</time>
        <ele>1100.0</ele>
      </trkpt>
      <trkpt lat="44.262908" lon="7.678592">
        <time>1970-01-01T00:00:00+00:00</time>
        <ele>1108.0</ele>
      </trkpt>
      <trkpt lat="44.262931" lon="7.678782">
        <time>1970-01-01T00:00:00+00:00</time>
        <ele>1110.0</ele>
      </trkpt>
      <trkpt lat="44.262969" lon="7.678935">
        <time>1970-01-01T00:00:00+00:00</time>
        <ele>1114.0</ele>
      </trkpt>
      <trkpt lat="44.263144" lon="7.679042">
        <time>1970-01-01T00:00:00+00:00</time>
        <ele>1119.0</ele>
      </trkpt>
      <trkpt lat="44.263362" lon="7.679464">
        <time>1970-01-01T00:00:00+00:00</time>
        <ele>1132.0</ele>
      </trkpt>
      <trkpt lat="44.2635" lon="7.679657">
        <time>1970-01-01T00:00:00+00:00</time>
        <ele>1139.0</ele>
      </trkpt>
      <trkpt lat="44.263685" lon="7.679764">
        <time>1970-01-01T00:00:00+00:00</time>
        <ele>1145.0</ele>
      </trkpt>
      <trkpt lat="44.263832" lon="7.679945">
        <time>1970-01-01T00:00:00+00:00</time>
        <ele>1153.0</ele>
      </trkpt>
      <trkpt lat="44.263992" lon="7.680086">
        <time>1970-01-01T00:00:00+00:00</time>
        <ele>1160.0</ele>
      </trkpt>
      <trkpt lat="44.264131" lon="7.680172">
        <time>1970-01-01T00:00:00+00:00</time>
        <ele>1162.0</ele>
      </trkpt>
      <trkpt lat="44.264177" lon="7.680494">
        <time>1970-01-01T00:00:00+00:00</time>
        <ele>1174.0</ele>
      </trkpt>
      <trkpt lat="44.264054" lon="7.68073">
        <time>1970-01-01T00:00:00+00:00</time>
        <ele>1188.0</ele>
      </trkpt>
      <trkpt lat="44.2639" lon="7.68088">
        <time>1970-01-01T00:00:00+00:00</time>
        <ele>1201.0</ele>
      </trkpt>
      <trkpt lat="44.263792" lon="7.681052">
        <time>1970-01-01T00:00:00+00:00</time>
        <ele>1210.0</ele>
      </trkpt>
      <trkpt lat="44.263746" lon="7.681331">
        <time>1970-01-01T00:00:00+00:00</time>
        <ele>1219.0</ele>
      </trkpt>
      <trkpt lat="44.263623" lon="7.681674">
        <time>1970-01-01T00:00:00+00:00</time>
        <ele>1230.0</ele>
      </trkpt>
      <trkpt lat="44.26347" lon="7.681888">
        <time>1970-01-01T00:00:00+00:00</time>
        <ele>1235.0</ele>
      </trkpt>
      <trkpt lat="44.263462" lon="7.681932">
        <time>1970-01-01T00:00:00+00:00</time>
        <ele>1236.0</ele>
      </trkpt>
      <trkpt lat="44.263462" lon="7.681932">
        <time>1970-01-01T00:00:00+00:00</time>
        <ele>1236.0</ele>
      </trkpt>
      <trkpt lat="44.26347" lon="7.681888">
        <time>1970-01-01T00:00:00+00:00</time>
        <ele>1235.0</ele>
      </trkpt>
      <trkpt lat="44.263623" lon="7.681674">
        <time>1970-01-01T00:00:00+00:00</time>
        <ele>1230.0</ele>
      </trkpt>
      <trkpt lat="44.263746" lon="7.681331">
        <time>1970-01-01T00:00:00+00:00</time>
        <ele>1219.0</ele>
      </trkpt>
      <trkpt lat="44.263792" lon="7.681052">
        <time>1970-01-01T00:00:00+00:00</time>
        <ele>1210.0</ele>
      </trkpt>
      <trkpt lat="44.2639" lon="7.68088">
        <time>1970-01-01T00:00:00+00:00</time>
        <ele>1201.0</ele>
      </trkpt>
      <trkpt lat="44.264054" lon="7.68073">
        <time>1970-01-01T00:00:00+00:00</time>
        <ele>1188.0</ele>
      </trkpt>
      <trkpt lat="44.264177" lon="7.680494">
        <time>1970-01-01T00:00:00+00:00</time>
        <ele>1174.0</ele>
      </trkpt>
      <trkpt lat="44.264131" lon="7.680172">
        <time>1970-01-01T00:00:00+00:00</time>
        <ele>1162.0</ele>
      </trkpt>
      <trkpt lat="44.263992" lon="7.680086">
        <time>1970-01-01T00:00:00+00:00</time>
        <ele>1160.0</ele>
      </trkpt>
      <trkpt lat="44.263832" lon="7.679945">
        <time>1970-01-01T00:00:00+00:00</time>
        <ele>1153.0</ele>
      </trkpt>
      <trkpt lat="44.263685" lon="7.679764">
        <time>1970-01-01T00:00:00+00:00</time>
        <ele>1145.0</ele>
      </trkpt>
      <trkpt lat="44.2635" lon="7.679657">
        <time>1970-01-01T00:00:00+00:00</time>
        <ele>1139.0</ele>
      </trkpt>
      <trkpt lat="44.263362" lon="7.679464">
        <time>1970-01-01T00:00:00+00:00</time>
        <ele>1132.0</ele>
      </trkpt>
      <trkpt lat="44.263144" lon="7.679042">
        <time>1970-01-01T00:00:00+00:00</time>
        <ele>1119.0</ele>
      </trkpt>
      <trkpt lat="44.262969" lon="7.678935">
        <time>1970-01-01T00:00:00+00:00</time>
        <ele>1114.0</ele>
      </trkpt>
      <trkpt lat="44.262931" lon="7.678782">
        <time>1970-01-01T00:00:00+00:00</time>
        <ele>1110.0</ele>
      </trkpt>
      <trkpt lat="44.262908" lon="7.678592">
        <time>1970-01-01T00:00:00+00:00</time>
        <ele>1108.0</ele>
      </trkpt>
      <trkpt lat="44.26287" lon="7.678005">
        <time>1970-01-01T00:00:00+00:00</time>
        <ele>1100.0</ele>
      </trkpt>
      <trkpt lat="44.263039" lon="7.677769">
        <time>1970-01-01T00:00:00+00:00</time>
        <ele>1101.0</ele>
      </trkpt>
      <trkpt lat="44.263101" lon="7.677447">
        <time>1970-01-01T00:00:00+00:00</time>
        <ele>1098.0</ele>
      </trkpt>
      <trkpt lat="44.263162" lon="7.677211">
        <time>1970-01-01T00:00:00+00:00</time>
        <ele>1097.0</ele>
      </trkpt>
      <trkpt lat="44.263285" lon="7.677382">
        <time>1970-01-01T00:00:00+00:00</time>
        <ele>1097.0</ele>
      </trkpt>
      <trkpt lat="44.263424" lon="7.677618">
        <time>1970-01-01T00:00:00+00:00</time>
        <ele>1095.0</ele>
      </trkpt>
      <trkpt lat="44.263608" lon="7.677683">
        <time>1970-01-01T00:00:00+00:00</time>
        <ele>1090.0</ele>
      </trkpt>
      <trkpt lat="44.263654" lon="7.677425">
        <time>1970-01-01T00:00:00+00:00</time>
        <ele>1087.0</ele>
      </trkpt>
      <trkpt lat="44.2639" lon="7.677575">
        <time>1970-01-01T00:00:00+00:00</time>
        <ele>1078.0</ele>
      </trkpt>
      <trkpt lat="44.263961" lon="7.677339">
        <time>1970-01-01T00:00:00+00:00</time>
        <ele>1073.0</ele>
      </trkpt>
      <trkpt lat="44.264177" lon="7.677168">
        <time>1970-01-01T00:00:00+00:00</time>
        <ele>1063.0</ele>
      </trkpt>
      <trkpt lat="44.26433" lon="7.677018">
        <time>1970-01-01T00:00:00+00:00</time>
        <ele>1052.0</ele>
      </trkpt>
      <trkpt lat="44.264469" lon="7.677018">
        <time>1970-01-01T00:00:00+00:00</time>
        <ele>1043.0</ele>
      </trkpt>
      <trkpt lat="44.264653" lon="7.676953">
        <time>1970-01-01T00:00:00+00:00</time>
        <ele>1034.0</ele>
      </trkpt>
      <trkpt lat="44.264761" lon="7.676867">
        <time>1970-01-01T00:00:00+00:00</time>
        <ele>1029.0</ele>
      </trkpt>
      <trkpt lat="44.264815" lon="7.676679">
        <time>1970-01-01T00:00:00+00:00</time>
        <ele>1025.0</ele>
      </trkpt>
      <trkpt lat="44.264806" lon="7.676934">
        <time>1970-01-01T00:00:00+00:00</time>
        <ele>1028.0</ele>
      </trkpt>
      <trkpt lat="44.264974" lon="7.677082">
        <time>1970-01-01T00:00:00+00:00</time>
        <ele>1024.0</ele>
      </trkpt>
      <trkpt lat="44.265106" lon="7.677322">
        <time>1970-01-01T00:00:00+00:00</time>
        <ele>1028.0</ele>
      </trkpt>
      <trkpt lat="44.265243" lon="7.677482">
        <time>1970-01-01T00:00:00+00:00</time>
        <ele>1033.0</ele>
      </trkpt>
      <trkpt lat="44.265755" lon="7.677649">
        <time>1970-01-01T00:00:00+00:00</time>
        <ele>1037.0</ele>
      </trkpt>
      <trkpt lat="44.266006" lon="7.677778">
        <time>1970-01-01T00:00:00+00:00</time>
        <ele>1039.0</ele>
      </trkpt>
      <trkpt lat="44.26628" lon="7.678006">
        <time>1970-01-01T00:00:00+00:00</time>
        <ele>1039.0</ele>
      </trkpt>
      <trkpt lat="44.266538" lon="7.678193">
        <time>1970-01-01T00:00:00+00:00</time>
        <ele>1038.0</ele>
      </trkpt>
      <trkpt lat="44.266592" lon="7.678491">
        <time>1970-01-01T00:00:00+00:00</time>
        <ele>1044.0</ele>
      </trkpt>
      <trkpt lat="44.266664" lon="7.678751">
        <time>1970-01-01T00:00:00+00:00</time>
        <ele>1045.0</ele>
      </trkpt>
      <trkpt lat="44.266658" lon="7.678995">
        <time>1970-01-01T00:00:00+00:00</time>
        <ele>1048.0</ele>
      </trkpt>
      <trkpt lat="44.266714" lon="7.679351">
        <time>1970-01-01T00:00:00+00:00</time>
        <ele>1046.0</ele>
      </trkpt>
      <trkpt lat="44.266699" lon="7.679519">
        <time>1970-01-01T00:00:00+00:00</time>
        <ele>1046.0</ele>
      </trkpt>
      <trkpt lat="44.266596" lon="7.679665">
        <time>1970-01-01T00:00:00+00:00</time>
        <ele>1054.0</ele>
      </trkpt>
      <trkpt lat="44.266554" lon="7.679831">
        <time>1970-01-01T00:00:00+00:00</time>
        <ele>1057.0</ele>
      </trkpt>
      <trkpt lat="44.266586" lon="7.68006">
        <time>1970-01-01T00:00:00+00:00</time>
        <ele>1054.0</ele>
      </trkpt>
      <trkpt lat="44.266578" lon="7.680203">
        <time>1970-01-01T00:00:00+00:00</time>
        <ele>1054.0</ele>
      </trkpt>
      <trkpt lat="44.266592" lon="7.680534">
        <time>1970-01-01T00:00:00+00:00</time>
        <ele>1055.0</ele>
      </trkpt>
      <trkpt lat="44.266662" lon="7.680894">
        <time>1970-01-01T00:00:00+00:00</time>
        <ele>1055.0</ele>
      </trkpt>
      <trkpt lat="44.26681" lon="7.681187">
        <time>1970-01-01T00:00:00+00:00</time>
        <ele>1053.0</ele>
      </trkpt>
      <trkpt lat="44.266971" lon="7.681836">
        <time>1970-01-01T00:00:00+00:00</time>
        <ele>1051.0</ele>
      </trkpt>
      <trkpt lat="44.26693" lon="7.682319">
        <time>1970-01-01T00:00:00+00:00</time>
        <ele>1054.0</ele>
      </trkpt>
      <trkpt lat="44.266898" lon="7.683027">
        <time>1970-01-01T00:00:00+00:00</time>
        <ele>1055.0</ele>
      </trkpt>
      <trkpt lat="44.266939" lon="7.683138">
        <time>1970-01-01T00:00:00+00:00</time>
        <ele>1053.0</ele>
      </trkpt>
      <trkpt lat="44.267024" lon="7.682855">
        <time>1970-01-01T00:00:00+00:00</time>
        <ele>1049.0</ele>
      </trkpt>
      <trkpt lat="44.26717" lon="7.68248">
        <time>1970-01-01T00:00:00+00:00</time>
        <ele>1041.0</ele>
      </trkpt>
      <trkpt lat="44.267239" lon="7.68234">
        <time>1970-01-01T00:00:00+00:00</time>
        <ele>1037.0</ele>
      </trkpt>
      <trkpt lat="44.267355" lon="7.681868">
        <time>1970-01-01T00:00:00+00:00</time>
        <ele>1030.0</ele>
      </trkpt>
      <trkpt lat="44.267424" lon="7.681686">
        <time>1970-01-01T00:00:00+00:00</time>
        <ele>1026.0</ele>
      </trkpt>
      <trkpt lat="44.26747" lon="7.68145">
        <time>1970-01-01T00:00:00+00:00</time>
        <ele>1024.0</ele>
      </trkpt>
      <trkpt lat="44.267547" lon="7.681214">
        <time>1970-01-01T00:00:00+00:00</time>
        <ele>1018.0</ele>
      </trkpt>
      <trkpt lat="44.267634" lon="7.681049">
        <time>1970-01-01T00:00:00+00:00</time>
        <ele>1013.0</ele>
      </trkpt>
      <trkpt lat="44.268045" lon="7.680516">
        <time>1970-01-01T00:00:00+00:00</time>
        <ele>1000.0</ele>
      </trkpt>
      <trkpt lat="44.268137" lon="7.68013">
        <time>1970-01-01T00:00:00+00:00</time>
        <ele>993.0</ele>
      </trkpt>
      <trkpt lat="44.268447" lon="7.679899">
        <time>1970-01-01T00:00:00+00:00</time>
        <ele>983.0</ele>
      </trkpt>
      <trkpt lat="44.268577" lon="7.678945">
        <time>1970-01-01T00:00:00+00:00</time>
        <ele>970.0</ele>
      </trkpt>
      <trkpt lat="44.268905" lon="7.678842">
        <time>1970-01-01T00:00:00+00:00</time>
        <ele>964.0</ele>
      </trkpt>
      <trkpt lat="44.269059" lon="7.679014">
        <time>1970-01-01T00:00:00+00:00</time>
        <ele>966.0</ele>
      </trkpt>
      <trkpt lat="44.269212" lon="7.678971">
        <time>1970-01-01T00:00:00+00:00</time>
        <ele>965.0</ele>
      </trkpt>
      <trkpt lat="44.269335" lon="7.678499">
        <time>1970-01-01T00:00:00+00:00</time>
        <ele>959.0</ele>
      </trkpt>
      <trkpt lat="44.269643" lon="7.677469">
        <time>1970-01-01T00:00:00+00:00</time>
        <ele>962.0</ele>
      </trkpt>
      <trkpt lat="44.269704" lon="7.676954">
        <time>1970-01-01T00:00:00+00:00</time>
        <ele>960.0</ele>
      </trkpt>
      <trkpt lat="44.269892" lon="7.676863">
        <time>1970-01-01T00:00:00+00:00</time>
        <ele>960.0</ele>
      </trkpt>
      <trkpt lat="44.270513" lon="7.676495">
        <time>1970-01-01T00:00:00+00:00</time>
        <ele>946.0</ele>
      </trkpt>
      <trkpt lat="44.270835" lon="7.676492">
        <time>1970-01-01T00:00:00+00:00</time>
        <ele>942.0</ele>
      </trkpt>
      <trkpt lat="44.271117" lon="7.676149">
        <time>1970-01-01T00:00:00+00:00</time>
        <ele>928.0</ele>
      </trkpt>
      <trkpt lat="44.271609" lon="7.675495">
        <time>1970-01-01T00:00:00+00:00</time>
        <ele>909.0</ele>
      </trkpt>
      <trkpt lat="44.272347" lon="7.674851">
        <time>1970-01-01T00:00:00+00:00</time>
        <ele>886.0</ele>
      </trkpt>
      <trkpt lat="44.272316" lon="7.674336">
        <time>1970-01-01T00:00:00+00:00</time>
        <ele>873.0</ele>
      </trkpt>
      <trkpt lat="44.272348" lon="7.674164">
        <time>1970-01-01T00:00:00+00:00</time>
        <ele>870.0</ele>
      </trkpt>
      <trkpt lat="44.272249" lon="7.674099">
        <time>1970-01-01T00:00:00+00:00</time>
        <ele>866.0</ele>
      </trkpt>
      <trkpt lat="44.272149" lon="7.67426">
        <time>1970-01-01T00:00:00+00:00</time>
        <ele>867.0</ele>
      </trkpt>
      <trkpt lat="44.272179" lon="7.674046">
        <time>1970-01-01T00:00:00+00:00</time>
        <ele>863.0</ele>
      </trkpt>
      <trkpt lat="44.27221" lon="7.673531">
        <time>1970-01-01T00:00:00+00:00</time>
        <ele>851.0</ele>
      </trkpt>
      <trkpt lat="44.272471" lon="7.672876">
        <time>1970-01-01T00:00:00+00:00</time>
        <ele>843.0</ele>
      </trkpt>
      <trkpt lat="44.272471" lon="7.672748">
        <time>1970-01-01T00:00:00+00:00</time>
        <ele>839.0</ele>
      </trkpt>
      <trkpt lat="44.272548" lon="7.67264">
        <time>1970-01-01T00:00:00+00:00</time>
        <ele>838.0</ele>
      </trkpt>
      <trkpt lat="44.272648" lon="7.672426">
        <time>1970-01-01T00:00:00+00:00</time>
        <ele>833.0</ele>
      </trkpt>
      <trkpt lat="44.272771" lon="7.672233">
        <time>1970-01-01T00:00:00+00:00</time>
        <ele>831.0</ele>
      </trkpt>
      <trkpt lat="44.272955" lon="7.672072">
        <time>1970-01-01T00:00:00+00:00</time>
        <ele>829.0</ele>
      </trkpt>
      <trkpt lat="44.273184" lon="7.671887">
        <time>1970-01-01T00:00:00+00:00</time>
        <ele>822.0</ele>
      </trkpt>
      <trkpt lat="44.273318" lon="7.671743">
        <time>1970-01-01T00:00:00+00:00</time>
        <ele>815.0</ele>
      </trkpt>
      <trkpt lat="44.273639" lon="7.671555">
        <time>1970-01-01T00:00:00+00:00</time>
        <ele>812.0</ele>
      </trkpt>
      <trkpt lat="44.273714" lon="7.671456">
        <time>1970-01-01T00:00:00+00:00</time>
        <ele>810.0</ele>
      </trkpt>
      <trkpt lat="44.273128" lon="7.671511">
        <time>1970-01-01T00:00:00+00:00</time>
        <ele>815.0</ele>
      </trkpt>
      <trkpt lat="44.273025" lon="7.671462">
        <time>1970-01-01T00:00:00+00:00</time>
        <ele>817.0</ele>
      </trkpt>
      <trkpt lat="44.272985" lon="7.671416">
        <time>1970-01-01T00:00:00+00:00</time>
        <ele>819.0</ele>
      </trkpt>
      <trkpt lat="44.272829" lon="7.671496">
        <time>1970-01-01T00:00:00+00:00</time>
        <ele>822.0</ele>
      </trkpt>
      <trkpt lat="44.272544" lon="7.671695">
        <time>1970-01-01T00:00:00+00:00</time>
        <ele>831.0</ele>
      </trkpt>
      <trkpt lat="44.272408" lon="7.671905">
        <time>1970-01-01T00:00:00+00:00</time>
        <ele>832.0</ele>
      </trkpt>
    </trkseg>
  </trk>
</gpx>
